When you browse on this site, cookies collect data to enhance your experience and personalize the content and advertising you see.
Visit our Privacy Policy to learn more. By continuing to use the site, you agree to this use of cookies and data.
  • In Hungary
  • List of Countries
  • For 7 days
  • Water Temperature
  • Weather Map
  • News
  • Weather Widgets
  • user-avatar
    Login

    Hourly Weather Chita

    Today, 13 December, Friday

    Time Temperature Precipitation Wind Pressure Humidity
    00:00 +8°C° 0 mm 0 mps 533 mmHg 93%
    01:00 +7°C° 0 mm 0 mps 533 mmHg 92%
    02:00 +8°C° 0 mm 1 mps 533 mmHg 92%
    03:00 +8°C° 0 mm 1 mps 532 mmHg 91%
    04:00 +7°C° 0 mm 1 mps 532 mmHg 90%
    05:00 +8°C° 0 mm 1 mps 533 mmHg 88%
    06:00 +9°C° 0 mm 1 mps 534 mmHg 86%
    07:00 +10°C° 0 mm 1 mps 535 mmHg 84%
    08:00 +12°C° 0 mm 1 mps 536 mmHg 76%
    09:00 +14°C° 0 mm 1 mps 537 mmHg 68%
    10:00 +18°C° 0 mm 1 mps 539 mmHg 61%
    11:00 +16°C° 0.3 mm 1 mps 538 mmHg 66%
    12:00 +16°C° 0.3 mm 2 mps 537 mmHg 70%
    13:00 +16°C° 0.3 mm 2 mps 536 mmHg 75%
    14:00 +15°C° 0.6 mm 1 mps 536 mmHg 79%
    15:00 +15°C° 0.6 mm 1 mps 535 mmHg 84%
    16:00 +14°C° 0.6 mm 1 mps 534 mmHg 88%
    17:00 +13°C° 0.3 mm 1 mps 534 mmHg 91%
    18:00 +12°C° 0.3 mm 1 mps 534 mmHg 94%
    19:00 +11°C° 0.3 mm 1 mps 534 mmHg 98%
    20:00 +10°C° 0.3 mm 0 mps 534 mmHg 96%
    21:00 +9°C° 0.3 mm 0 mps 534 mmHg 95%
    22:00 +9°C° 0.3 mm 0 mps 535 mmHg 93%
    23:00 +9°C° 0.3 mm 0 mps 534 mmHg 93%

    Tomorrow, 14 December, Saturday

    Time Temperature Precipitation Wind Pressure Humidity
    00:00 +8°C° 0.3 mm 0 mps 534 mmHg 92%
    01:00 +8°C° 0.3 mm 0 mps 533 mmHg 92%
    02:00 +8°C° 0 mm 0 mps 533 mmHg 91%
    03:00 +8°C° 0 mm 0 mps 533 mmHg 91%
    04:00 +8°C° 0 mm 1 mps 533 mmHg 90%
    05:00 +8°C° 0 mm 0 mps 534 mmHg 89%
    06:00 +9°C° 0 mm 0 mps 534 mmHg 87%
    07:00 +9°C° 0 mm 0 mps 535 mmHg 86%
    08:00 +12°C° 0 mm 1 mps 536 mmHg 80%
    09:00 +14°C° 0 mm 1 mps 538 mmHg 75%
    10:00 +16°C° 0 mm 1 mps 539 mmHg 69%
    11:00 +15°C° 0.5 mm 1 mps 538 mmHg 75%
    12:00 +15°C° 0.5 mm 1 mps 537 mmHg 80%
    13:00 +14°C° 0.5 mm 1 mps 536 mmHg 85%
    14:00 +14°C° 1 mm 1 mps 535 mmHg 87%
    15:00 +14°C° 1 mm 1 mps 535 mmHg 88%
    16:00 +13°C° 1 mm 1 mps 535 mmHg 89%
    17:00 +12°C° 0.9 mm 1 mps 535 mmHg 91%
    18:00 +12°C° 0.9 mm 1 mps 535 mmHg 94%
    19:00 +11°C° 0.9 mm 1 mps 535 mmHg 96%
    20:00 +10°C° 0.3 mm 0 mps 535 mmHg 95%
    21:00 +10°C° 0.3 mm 0 mps 536 mmHg 94%
    22:00 +10°C° 0.3 mm 0 mps 536 mmHg 92%
    23:00 +9°C° 0 mm 0 mps 535 mmHg 93%

    Day after tomorrow, 15 December, Sunday

    Time Temperature Precipitation Wind Pressure Humidity
    00:00 +9°C° 0 mm 0 mps 535 mmHg 93%
    01:00 +9°C° 0 mm 0 mps 534 mmHg 93%
    02:00 +8°C° 0 mm 0 mps 534 mmHg 93%
    03:00 +8°C° 0 mm 0 mps 534 mmHg 94%
    04:00 +7°C° 0 mm 0 mps 533 mmHg 94%
    05:00 +8°C° 0 mm 0 mps 534 mmHg 92%
    06:00 +9°C° 0 mm 0 mps 535 mmHg 90%
    07:00 +10°C° 0 mm 0 mps 536 mmHg 88%
    08:00 +11°C° 0.1 mm 0 mps 537 mmHg 84%
    09:00 +14°C° 0.1 mm 1 mps 538 mmHg 79%
    10:00 +16°C° 0.1 mm 1 mps 539 mmHg 75%
    11:00 +15°C° 0.7 mm 1 mps 538 mmHg 81%
    12:00 +14°C° 0.7 mm 1 mps 537 mmHg 86%
    13:00 +14°C° 0.7 mm 1 mps 536 mmHg 92%
    14:00 +13°C° 1.6 mm 1 mps 536 mmHg 93%
    15:00 +13°C° 1.6 mm 1 mps 535 mmHg 94%
    16:00 +13°C° 1.6 mm 1 mps 535 mmHg 95%
    17:00 +12°C° 0.7 mm 1 mps 535 mmHg 95%
    18:00 +11°C° 0.7 mm 1 mps 535 mmHg 96%
    19:00 +11°C° 0.7 mm 1 mps 535 mmHg 97%
    20:00 +11°C° 0.4 mm 1 mps 535 mmHg 96%
    21:00 +11°C° 0.4 mm 1 mps 536 mmHg 96%
    22:00 +11°C° 0.4 mm 1 mps 536 mmHg 95%
    23:00 +10°C° 0.8 mm 1 mps 536 mmHg 95%

    16 December, Monday

    Time Temperature Precipitation Wind Pressure Humidity
    00:00 +10°C° 0.8 mm 1 mps 535 mmHg 95%
    01:00 +10°C° 0.8 mm 1 mps 535 mmHg 95%
    02:00 +10°C° 0.2 mm 1 mps 534 mmHg 95%
    03:00 +9°C° 0.2 mm 1 mps 534 mmHg 94%
    04:00 +8°C° 0.2 mm 0 mps 534 mmHg 94%
    05:00 +10°C° 0 mm 1 mps 534 mmHg 93%
    06:00 +10°C° 0 mm 1 mps 535 mmHg 92%
    07:00 +11°C° 0 mm 1 mps 536 mmHg 90%
    08:00 +12°C° 0.1 mm 1 mps 537 mmHg 84%
    09:00 +14°C° 0.1 mm 1 mps 538 mmHg 78%
    10:00 +16°C° 0.1 mm 1 mps 539 mmHg 72%
    11:00 +15°C° 0.7 mm 1 mps 538 mmHg 77%
    12:00 +15°C° 0.7 mm 1 mps 537 mmHg 82%
    13:00 +15°C° 0.7 mm 1 mps 536 mmHg 87%
    14:00 +14°C° 1.5 mm 1 mps 536 mmHg 89%
    15:00 +13°C° 1.5 mm 1 mps 535 mmHg 90%
    16:00 +13°C° 1.5 mm 1 mps 534 mmHg 92%
    17:00 +12°C° 0.4 mm 1 mps 534 mmHg 93%
    18:00 +10°C° 0.4 mm 0 mps 534 mmHg 93%
    19:00 +10°C° 0.4 mm 0 mps 534 mmHg 94%
    20:00 +9°C° 0.1 mm 0 mps 534 mmHg 93%
    21:00 +9°C° 0.1 mm 0 mps 534 mmHg 92%
    22:00 +9°C° 0.1 mm 0 mps 535 mmHg 90%
    23:00 +10°C° 0 mm 1 mps 534 mmHg 90%

    17 December, Tuesday

    Time Temperature Precipitation Wind Pressure Humidity
    00:00 +9°C° 0 mm 1 mps 534 mmHg 90%
    01:00 +9°C° 0 mm 1 mps 533 mmHg 90%
    02:00 +9°C° 0 mm 1 mps 533 mmHg 89%
    03:00 +8°C° 0 mm 1 mps 533 mmHg 88%
    04:00 +8°C° 0 mm 1 mps 533 mmHg 88%
    05:00 +9°C° 0 mm 1 mps 533 mmHg 86%
    06:00 +10°C° 0 mm 1 mps 534 mmHg 85%
    07:00 +10°C° 0 mm 1 mps 535 mmHg 83%
    08:00 +12°C° 0 mm 1 mps 536 mmHg 76%
    09:00 +14°C° 0 mm 1 mps 537 mmHg 69%
    10:00 +16°C° 0 mm 1 mps 539 mmHg 62%
    11:00 +16°C° 0.2 mm 1 mps 538 mmHg 66%
    12:00 +16°C° 0.2 mm 1 mps 537 mmHg 71%
    13:00 +16°C° 0.2 mm 2 mps 536 mmHg 75%
    14:00 +15°C° 0.7 mm 1 mps 536 mmHg 80%
    15:00 +14°C° 0.7 mm 1 mps 535 mmHg 86%
    16:00 +14°C° 0.7 mm 1 mps 534 mmHg 91%
    17:00 +13°C° 0.5 mm 1 mps 534 mmHg 93%
    18:00 +12°C° 0.5 mm 1 mps 534 mmHg 95%
    19:00 +11°C° 0.5 mm 1 mps 534 mmHg 97%
    20:00 +11°C° 0.9 mm 1 mps 534 mmHg 96%
    21:00 +10°C° 0.9 mm 0 mps 535 mmHg 96%
    22:00 +10°C° 0.9 mm 0 mps 535 mmHg 96%
    23:00 +9°C° 0.3 mm 0 mps 534 mmHg 95%

    18 December, Wednesday

    Time Temperature Precipitation Wind Pressure Humidity
    00:00 +10°C° 0.3 mm 1 mps 534 mmHg 94%
    01:00 +9°C° 0.3 mm 1 mps 533 mmHg 94%
    02:00 +8°C° 0 mm 0 mps 533 mmHg 94%
    03:00 +7°C° 0 mm 0 mps 533 mmHg 94%
    04:00 +7°C° 0 mm 0 mps 532 mmHg 94%
    05:00 +8°C° 0 mm 0 mps 533 mmHg 93%
    06:00 +9°C° 0 mm 0 mps 534 mmHg 92%
    07:00 +9°C° 0 mm 0 mps 535 mmHg 91%
    08:00 +12°C° 0 mm 1 mps 536 mmHg 86%
    09:00 +13°C° 0 mm 1 mps 537 mmHg 81%
    10:00 +15°C° 0 mm 1 mps 538 mmHg 76%
    11:00 +15°C° 0.3 mm 1 mps 538 mmHg 74%
    12:00 +16°C° 0.3 mm 1 mps 538 mmHg 73%
    13:00 +16°C° 0.3 mm 1 mps 537 mmHg 71%
    14:00 +16°C° 0.4 mm 1 mps 536 mmHg 75%
    15:00 +15°C° 0.4 mm 1 mps 535 mmHg 79%
    16:00 +14°C° 0.4 mm 1 mps 535 mmHg 83%
    17:00 +13°C° 0.1 mm 1 mps 534 mmHg 87%
    18:00 +11°C° 0.1 mm 0 mps 534 mmHg 90%
    19:00 +10°C° 0.1 mm 0 mps 534 mmHg 93%
    20:00 +10°C° 0 mm 0 mps 534 mmHg 93%
    21:00 +9°C° 0 mm 0 mps 534 mmHg 93%
    22:00 +9°C° 0 mm 0 mps 535 mmHg 92%
    23:00 +9°C° 0 mm 0 mps 534 mmHg 93%
    Show more